logo tempoitalia

Diretta Meteo Kos, Grecialunedì 31 agosto ore 08:20

Mappa
Sereno 25 °C Sereno 24 Ore: T.min 24 T.max 30
Ponente Nord Km/h 31.5 Punto di rugiada: 18 °C Umidità: 65% Visibilità: 10 Km
Il sole sorge alle: 06:41 Il sole tramonta alle: 19:42
31 Agosto 2026 08:20 tempo osservato: Sereno Sereno 25 65 1011 vento: Nord N 31.5
31 Agosto 2026 07:50 tempo osservato: Sereno Sereno 24 64 1011 vento: Nord N 22.2
31 Agosto 2026 07:20 tempo osservato: Sereno Sereno 24 69 1011 vento: Nord N 16.7
31 Agosto 2026 06:50 tempo osservato: Sereno Sereno 24 69 1011 vento: Nord N 9.3
31 Agosto 2026 06:20 tempo osservato: Sereno Sereno 24 64 1011 vento: Nord N 11.1
31 Agosto 2026 05:50 tempo osservato: Sereno Sereno 25 61 1011 vento: Nord N 16.7
31 Agosto 2026 05:20 tempo osservato: Sereno Sereno 25 69 1011 vento: Nord N 18.5
31 Agosto 2026 04:50 tempo osservato: Sereno Sereno 25 69 1011 vento: Nord N 22.2
31 Agosto 2026 04:20 tempo osservato: Sereno Sereno 25 61 1011 vento: Nord N 22.2
31 Agosto 2026 03:50 tempo osservato: Sereno Sereno 25 61 1011 vento: Nord N 22.2
31 Agosto 2026 03:20 tempo osservato: Sereno Sereno 25 65 1011 vento: Nord N 22.2
31 Agosto 2026 02:50 tempo osservato: Sereno Sereno 26 61 1011 vento: Nord N 22.2
31 Agosto 2026 02:20 tempo osservato: Sereno Sereno 26 61 1011 vento: Nord N 20.3
31 Agosto 2026 01:50 tempo osservato: Sereno Sereno 26 61 1011 vento: Nord N 24
31 Agosto 2026 01:20 tempo osservato: Sereno Sereno 26 57 1011 vento: Nord N 22.2
31 Agosto 2026 00:50 tempo osservato: Sereno Sereno 26 57 1012 vento: Nord N 27.8
31 Agosto 2026 00:20 tempo osservato: Sereno Sereno 26 61 1012 vento: Nord N 22.2
30 Agosto 2026 23:50 tempo osservato: Sereno Sereno 26 61 1012 vento: Nord N 22.2
30 Agosto 2026 23:20 tempo osservato: Sereno Sereno 26 61 1012 vento: Nord N 29.6
30 Agosto 2026 22:50 tempo osservato: Sereno Sereno 26 61 1012 vento: Nord N 29.6
30 Agosto 2026 22:20 tempo osservato: Sereno Sereno 26 57 1011 vento: Nord N 31.5
30 Agosto 2026 21:50 tempo osservato: Sereno Sereno 26 61 1011 vento: Nord N 27.8
30 Agosto 2026 21:20 tempo osservato: Sereno Sereno 26 57 1011 vento: Nord N 24
30 Agosto 2026 20:50 tempo osservato: Sereno Sereno 27 54 1011 vento: Nord N 18.5
30 Agosto 2026 20:20 tempo osservato: Sereno Sereno 27 57 1011 vento: Nord N 20.3
30 Agosto 2026 19:50 tempo osservato: Sereno Sereno 27 57 1011 vento: Nord N/NO 22.2
30 Agosto 2026 19:20 tempo osservato: Sereno Sereno 27 57 1011 vento: Nord N/NO 24
30 Agosto 2026 18:50 tempo osservato: Sereno Sereno 27 57 1011 vento: Nord N/NO 22.2
30 Agosto 2026 18:20 tempo osservato: Sereno Sereno 28 51 1011 vento: Nord N/NO 20.3
30 Agosto 2026 17:50 tempo osservato: Sereno Sereno 29 51 1011 vento: Nord NO 22.2
30 Agosto 2026 17:20 tempo osservato: Sereno Sereno 30 48 1011 vento: Nord NO 20.3
30 Agosto 2026 16:50 tempo osservato: Sereno Sereno 30 48 1011 vento: Nord NO 18.5
30 Agosto 2026 16:20 tempo osservato: Sereno Sereno 30 48 1011 vento: Nord N/NO 20.3
30 Agosto 2026 15:50 tempo osservato: Sereno Sereno 30 48 1011 vento: Nord NO 25.9
30 Agosto 2026 15:20 tempo osservato: Sereno Sereno 29 45 1011 vento: Nord N/NO 25.9
30 Agosto 2026 14:50 tempo osservato: Sereno Sereno 29 45 1011 vento: Nord N/NO 29.6
30 Agosto 2026 14:20 tempo osservato: Sereno Sereno 29 45 1011 vento: Nord N 27.8
30 Agosto 2026 13:50 tempo osservato: Sereno Sereno 29 45 1011 vento: Nord N 31.5
30 Agosto 2026 13:20 tempo osservato: Sereno Sereno 28 45 1012 vento: Nord N 27.8
30 Agosto 2026 12:50 tempo osservato: Sereno Sereno 28 45 1012 vento: Nord N 24
30 Agosto 2026 12:20 tempo osservato: Sereno Sereno 27 47 1012 vento: Nord N 27.8
30 Agosto 2026 11:50 tempo osservato: Sereno Sereno 27 47 1012 vento: Nord N 24
30 Agosto 2026 11:20 tempo osservato: Sereno Sereno 27 47 1012 vento: Nord N 25.9
30 Agosto 2026 10:50 tempo osservato: Sereno Sereno 27 47 1012 vento: Nord N 24
30 Agosto 2026 10:20 tempo osservato: Sereno Sereno 27 50 1012 vento: Nord N 35.2
30 Agosto 2026 09:50 tempo osservato: Sereno Sereno 26 54 1012 vento: Nord N 27.8
30 Agosto 2026 09:20 tempo osservato: Sereno Sereno 25 61 1011 vento: Nord N 24
30 Agosto 2026 08:50 tempo osservato: Sereno Sereno 25 61 1011 vento: Nord N 20.3